Vancouver, WA

3:49 AM PST on January 24, 2017 (GMT -0800)
Pearson

Weather History for KVUO - September, 2012

Change the Weather History Date:

Monday, September 3, 2012

  Actual Average Record
Temperature  
Mean Temperature 67 °F 67 °F  
Max Temperature 80 °F 79 °F 97 °F (1934)
Min Temperature 54 °F 55 °F 38 °F (1980)
Degree Days  
Heating Degree Days 0    
Month to date heating degree days 5  
Since 1 July heating degree days 20  
Cooling Degree Days 2    
Month to date cooling degree days 2  
Year to date cooling degree days 349  
Growing Degree Days 17 (Base 50)    
Moisture  
Dew Point 51 °F    
Average Humidity 58    
Maximum Humidity 83    
Minimum Humidity 32    
Precipitation  
Precipitation 0.00 in 0.03 in 0.92 in (1913)
Month to date precipitation 0.00 0.09  
Year to date precipitation 26.69 21.92  
Snow  
Snow 0.00 in - - ()
Month to date snowfall 0.0  
Snow Depth 0.00 in    
Sea Level Pressure  
Sea Level Pressure 30.10 in    
Wind  
Wind Speed 5 mph (NW)    
Max Wind Speed 17 mph    
Max Gust Speed 23 mph    
Visibility 10 miles    
Events      
T = Trace of Precipitation, MM = Missing Value Source: NWS Daily Summary

Daily Weather History Graph

Daily Weather History Graph

Search for Another Location

Airport or City:

Trip Planner

Search our weather history database for the weather conditions in past years. The results will help you decide how hot, cold, wet, or windy it might be!

Date:

Astronomy

Sep. 03, 2012 Rise Set
Actual Time 6:35 AM PDT 7:43 PM PDT
Civil Twilight 6:04 AM PDT 8:14 PM PDT
Nautical Twilight 5:27 AM PDT 8:50 PM PDT
Astronomical Twilight 4:49 AM PDT 9:29 PM PDT
Moon 8:51 PM PDT (9/3) 10:02 AM PDT (9/3)
Length of Visible Light 14h 09m
Length of Day
13h 08m
Waning Gibbous, 90% of the Moon is Illuminated
Sep 3
Waning Gibbous
Sep 8
Last Quarter
Sep 15
New
Sep 22
First Quarter
Sep 29
Full

Hourly Weather History & Observations

Time (PDT) Temp. Dew Point Humidity Pressure Visibility Wind Dir Wind Speed Gust Speed Precip Events Conditions
12:53 AM 62.1 °F 53.1 °F 72% 30.11 in 10.0 mi NW 3.5 mph - N/A   Clear
1:53 AM 61.0 °F 53.1 °F 75% 30.11 in 10.0 mi Calm Calm - N/A   Clear
2:53 AM 57.0 °F 51.1 °F 81% 30.11 in 10.0 mi Calm Calm - N/A   Clear
3:53 AM 55.0 °F 50.0 °F 83% 30.12 in 10.0 mi Calm Calm - N/A   Clear
4:53 AM 57.0 °F 51.1 °F 81% 30.12 in 10.0 mi Calm Calm - N/A   Clear
5:53 AM 57.0 °F 52.0 °F 83% 30.12 in 10.0 mi Calm Calm - N/A   Clear
6:17 AM 57.2 °F 51.8 °F 82% 30.12 in 10.0 mi Calm Calm - N/A   Mostly Cloudy
6:53 AM 57.0 °F 52.0 °F 83% 30.13 in 10.0 mi Calm Calm - N/A   Overcast
7:53 AM 57.9 °F 52.0 °F 81% 30.14 in 10.0 mi Variable 3.5 mph - N/A   Overcast
8:53 AM 59.0 °F 51.1 °F 75% 30.14 in 10.0 mi NNW 4.6 mph - N/A   Overcast
9:53 AM 60.1 °F 51.1 °F 72% 30.15 in 10.0 mi WNW 4.6 mph - N/A   Overcast
10:22 AM 62.6 °F 51.8 °F 68% 30.15 in 10.0 mi Variable 3.5 mph - N/A   Scattered Clouds
10:53 AM 64.0 °F 51.1 °F 63% 30.14 in 10.0 mi NW 3.5 mph - N/A   Clear
11:53 AM 68.0 °F 52.0 °F 56% 30.13 in 10.0 mi Variable 4.6 mph - N/A   Clear
12:53 PM 71.1 °F 48.9 °F 45% 30.12 in 10.0 mi Variable 6.9 mph - N/A   Clear
1:53 PM 73.9 °F 46.9 °F 38% 30.10 in 10.0 mi WNW 12.7 mph 17.3 mph N/A   Clear
2:53 PM 77.0 °F 48.9 °F 37% 30.09 in 10.0 mi NW 9.2 mph 16.1 mph N/A   Clear
3:53 PM 78.1 °F 48.0 °F 35% 30.06 in 10.0 mi NW 9.2 mph 18.4 mph N/A   Clear
4:53 PM 79.0 °F 46.9 °F 32% 30.06 in 10.0 mi NW 12.7 mph 21.9 mph N/A   Clear
5:53 PM 78.1 °F 46.9 °F 33% 30.05 in 10.0 mi NW 12.7 mph 19.6 mph N/A   Clear
6:53 PM 77.0 °F 46.9 °F 34% 30.05 in 10.0 mi NNW 9.2 mph 17.3 mph N/A   Clear
7:53 PM 73.9 °F 48.0 °F 40% 30.06 in 10.0 mi Variable 5.8 mph - N/A   Clear
8:53 PM 71.1 °F 53.1 °F 53% 30.07 in 10.0 mi NW 8.1 mph - N/A   Clear
9:53 PM 69.1 °F 54.0 °F 58% 30.08 in 10.0 mi WNW 8.1 mph - N/A   Clear
10:53 PM 66.9 °F 53.1 °F 61% 30.09 in 10.0 mi WNW 6.9 mph - N/A   Clear
11:53 PM 66.0 °F 52.0 °F 60% 30.10 in 10.0 mi NW 8.1 mph - N/A   Clear